DW4332 Weather Reports


Display with metric or nautical units.
time (UTC)temp
F
wind
direction
speed
MPH
gust
MPH
rain 1hr
in
rain 24hr
in
rain mn
in
humidity
%
barometer
mb
20260505124533 71 156 1.0 0.0 0.00 0.00 0.00 60 1010.4
20260505123015 70 187 2.0 0.0 0.00 0.00 0.00 60 1010.4
20260505121512 69 232 1.0 0.0 0.00 0.00 0.00 61 1010.4
20260505120006 67 190 1.0 0.0 0.00 0.00 0.00 62 1010.3
20260505114502 65 165 1.0 0.0 0.00 0.00 0.00 57 1010.4
20260505113114 63 200 1.0 0.0 0.00 0.00 0.00 51 1010.4
20260505111554 62 216 1.0 0.0 0.00 0.00 0.00 47 1010.2
20260505101536 59 186 1.0 0.0 0.00 0.00 0.00 22 1009.7
20260505100032 58 220 1.0 0.0 0.00 0.00 0.00 4 1009.4
20260505094530 57 192 1.0 0.0 0.00 0.00 0.00 100 1009.4
20260505093023 56 230 0.0 0.0 0.00 0.00 0.00 100 1009.6
20260505091519 56 197 0.0 0.0 0.00 0.00 0.00 100 1009.5
20260505090014 56 140 1.0 0.0 0.00 0.00 0.00 100 1009.7
20260505084527 55 188 0.0 0.0 0.00 0.00 0.00 100 1009.6
20260505083006 55 234 1.0 0.0 0.00 0.00 0.00 100 1009.6
20260505081507 54 223 0.0 0.0 0.00 0.00 0.00 100 1009.6
20260505080111 54 197 0.0 0.0 0.00 0.00 0.00 100 1009.6
20260505074553 54 216 0.0 0.0 0.00 0.00 0.00 100 1009.6
20260505073048 55 216 0.0 0.0 0.00 0.00 0.00 100 1009.4
20260505071544 55 202 0.0 0.0 0.00 0.00 0.00 100 1009.4
20260505070044 55 175 0.0 0.0 0.00 0.00 0.00 3 1009.3
20260505064536 55 228 0.0 0.0 0.00 0.00 0.00 9 1009.4
20260505063034 56 217 0.0 0.0 0.00 0.00 0.00 17 1009.3
20260505061531 57 211 0.0 0.0 0.00 0.00 0.00 23 1009.4
20260505060034 57 199 0.0 0.0 0.00 0.00 0.00 28 1009.6
20260505054525 57 198 0.0 0.0 0.00 0.00 0.00 35 1009.6
20260505053022 58 191 0.0 0.0 0.00 0.00 0.00 41 1009.5
20260505051521 58 178 0.0 0.0 0.00 0.00 0.00 43 1009.4
20260505041512 58 157 0.0 0.0 0.00 0.00 0.00 56 1010.0
20260505040009 58 186 1.0 0.0 0.00 0.00 0.00 58 1010.0
20260505034509 58 169 0.0 0.0 0.00 0.00 0.00 61 1010.1
20260505033009 58 132 0.0 0.0 0.00 0.00 0.00 62 1010.0
20260505031512 58 157 0.0 0.0 0.00 0.00 0.00 63 1010.2
20260505030008 58 148 0.0 0.0 0.00 0.00 0.00 63 1010.1
20260505024510 58 163 0.0 0.0 0.00 0.00 0.00 64 1010.2
20260505023007 59 182 0.0 0.0 0.00 0.00 0.00 64 1010.3
20260505021507 59 191 0.0 0.0 0.00 0.00 0.00 64 1010.4
20260505020009 59 153 1.0 0.0 0.00 0.00 0.00 64 1010.4
20260505014506 59 119 1.0 0.0 0.00 0.00 0.00 64 1010.3
20260505013005 60 153 1.0 0.0 0.00 0.00 0.00 64 1010.3
20260505011505 60 204 0.0 0.0 0.00 0.00 0.00 65 1010.2
20260505010012 61 211 1.0 0.0 0.00 0.00 0.00 64 1010.1
20260505004506 61 175 1.0 0.0 0.00 0.00 0.00 63 1009.8
20260505003003 62 204 0.0 0.0 0.00 0.00 0.00 61 1009.7
20260505001503 63 169 1.0 0.0 0.00 0.00 0.00 58 1009.5
20260505000110 64 175 1.0 0.0 0.00 0.00 0.00 56 1009.2
20260504234600 65 156 1.0 0.0 0.00 0.00 0.00 53 1009.1
20260504233112 65 165 1.0 0.0 0.00 0.00 0.00 52 1009.0
20260504231600 66 173 2.0 0.0 0.00 0.00 0.00 50 1009.0
20260504230059 67 218 1.0 0.0 0.00 0.00 0.00 50 1008.8
20260504224558 68 178 2.0 0.0 0.00 0.00 0.00 48 1008.7
20260504223057 68 184 2.0 0.0 0.00 0.00 0.00 48 1008.5
20260504221558 69 128 2.0 0.0 0.00 0.00 0.00 49 1008.5
20260504220055 70 211 2.0 0.0 0.00 0.00 0.00 46 1008.5
20260504214605 71 166 2.0 0.0 0.00 0.00 0.00 46 1008.5
20260504213054 72 162 3.0 0.0 0.00 0.00 0.00 44 1008.6
20260504211553 72 194 2.0 0.0 0.00 0.00 0.00 45 1008.5
20260504210055 74 142 3.0 0.0 0.00 0.00 0.00 43 1008.5
20260504204554 76 178 2.0 0.0 0.00 0.00 0.00 40 1008.3
20260504203056 78 164 2.0 0.0 0.00 0.00 0.00 29 1008.3
20260504201550 79 248 1.0 0.0 0.00 0.00 0.00 31 1008.3
20260504200048 78 313 2.0 0.0 0.00 0.00 0.00 31 1008.5
20260504194553 79 319 2.0 0.0 0.00 0.00 0.00 28 1008.7
20260504193046 78 336 1.0 0.0 0.00 0.00 0.00 29 1008.8
20260504191551 78 202 1.0 0.0 0.00 0.00 0.00 31 1009.0
20260504190040 78 195 2.0 0.0 0.00 0.00 0.00 33 1009.4
20260504184539 78 248 2.0 0.0 0.00 0.00 0.00 31 1009.7
20260504183038 78 212 3.0 0.0 0.00 0.00 0.00 30 1009.8
20260504181536 78 224 1.0 0.0 0.00 0.00 0.00 32 1009.9
20260504180034 78 202 2.0 0.0 0.00 0.00 0.00 33 1010.1
20260504174531 78 259 1.0 0.0 0.00 0.00 0.00 30 1010.3
20260504173031 78 180 1.0 0.0 0.00 0.00 0.00 31 1010.5
20260504171542 77 254 1.0 0.0 0.00 0.00 0.00 31 1010.8